Location: Lac de la Montange Noire
(46.1952°N, 74.2701°W)
Time: 12:29:32
(UTC-04:00)

Iridium 42 - Visible Passes

Search period start: 02 October 2014 00:00
Search period end: 12 October 2014 00:00
Orbit: 776 x 779 km, 86.4° (Epoch: 02 October)

Date Brightness Start Highest point End Pass type
(mag) Time Alt. Az. Time Alt. Az. Time Alt. Az.
02 Oct 6.2 04:59:59 10° SSE 05:05:03 56° E 05:10:09 10° NNE visible
03 Oct 7.3 04:27:08 10° SE 04:31:41 32° E 04:36:15 10° NNE visible
03 Oct 6.1 06:07:37 10° SW 06:12:20 34° WNW 06:17:04 10° NNW visible
04 Oct 8.1 03:54:55 10° ESE 03:58:25 19° ENE 04:01:56 10° NE visible
04 Oct 5.5 05:33:30 10° SSW 05:38:38 60° W 05:43:48 10° N visible
05 Oct 8.6 03:24:32 10° E 03:25:17 10° ENE 03:26:02 10° ENE visible
05 Oct 5.6 04:59:51 10° S 05:05:03 79° E 05:10:17 10° N visible
06 Oct 6.6 04:26:41 10° SSE 04:31:36 44° E 04:36:32 10° NNE visible
06 Oct 6.5 06:08:17 10° SW 06:12:31 25° WNW 06:16:48 10° NNW visible
07 Oct 7.5 03:54:03 10° SE 03:58:16 26° E 04:02:30 10° NNE visible
07 Oct 5.8 05:33:49 10° SSW 05:38:44 42° W 05:43:42 10° N visible
08 Oct 8.2 03:22:13 10° ESE 03:25:03 15° ENE 03:27:54 10° NE visible
08 Oct 5.4 05:01:40 22° S 05:05:05 75° W 05:10:19 10° N visible
09 Oct 5.9 04:29:22 34° SSE 04:31:33 63° E 04:36:43 10° N visible
09 Oct 6.9 06:09:55 12° WSW 06:12:46 18° WNW 06:16:19 10° NNW visible
10 Oct 6.9 03:56:53 31° ESE 03:58:09 35° E 04:02:52 10° NNE visible
10 Oct 6.2 05:37:25 26° WSW 05:38:54 31° WNW 05:43:30 10° NNW visible
11 Oct 7.7 03:24:16 20° E 03:24:52 21° E 03:28:39 10° NNE visible
11 Oct 5.6 05:04:47 52° W 05:05:10 53° W 05:10:17 10° N visible
